This demonstration page uses our WeatherBlox Daily Observations layout. Learn more.

Left ArrowRight Arrow

Hourly Observations for December 1, 2020

Temp ( °F °C ) Dew Point ( °F °C ) Humidity (%) Winds ( mph kmh ) Pressure ( in mb ) Visibility ( mi km ) Precip ( " mm )
12:07 am 00:07 Cloudy with Light Snow 31 -0.6 29 -1.7 92 92 W 9 15 29.89 1012 3 5 0.00 0.00
12:53 am 00:53 Cloudy with Light Snow 31 -0.6 29 -1.7 92 92 WNW 9 15 29.88 1012 3 4 0.00 0.00
1:03 am 01:03 Cloudy with Light Snow 31 -0.6 29 -1.7 92 92 WNW 10 17 29.89 1012 3 5 0.00 0.00
1:53 am 01:53 Cloudy with Light Snow 31 -0.6 29 -1.7 92 92 W 10 17 29.88 1012 4 6 0.00 0.00
2:53 am 02:53 Cloudy with Light Snow 30 -1.1 28 -2.2 92 92 W 10 17 29.89 1012 3 5 0.01 0.25
3:15 am 03:15 Cloudy with Light Snow 30 -1.1 27 -2.8 88 88 WNW 10 17 29.92 1013 7 11 0.00 0.00
3:53 am 03:53 Cloudy with Light Snow 30 -1.1 26 -3.3 85 85 WNW 15 24 29.91 1013 4 6 0.00 0.00
4:25 am 04:25 Cloudy 30 -1.1 26 -3.3 85 85 WNW 17 28 29.93 1013 9 14 0.00 0.00
4:53 am 04:53 Cloudy 29 -1.7 26 -3.3 89 89 W 9 15 29.91 1013 10 16 0.00 0.00
5:40 am 05:40 Cloudy 29 -1.7 25 -3.9 85 85 WNW 13 20 29.95 1014 10 16 0.00 0.00
5:53 am 05:53 Cloudy 29 -1.7 25 -3.9 85 85 WNW 10 17 29.93 1014 10 16 0.00 0.00
6:43 am 06:43 Cloudy 30 -1.1 25 -3.9 82 82 WNW 10 17 29.97 1015 10 16 0.00 0.00
6:53 am 06:53 Cloudy 30 -1.1 25 -3.9 82 82 W 9 15 29.95 1014 10 16 0.00 0.00
7:53 am 07:53 Cloudy 30 -1.1 25 -3.9 82 82 W 10 17 29.97 1015 10 16 0.00 0.00
8:05 am 08:05 Cloudy 30 -1.1 26 -3.3 85 85 W 10 17 29.99 1015 10 16 0.00 0.00
8:53 am 08:53 Cloudy 30 -1.1 26 -3.3 85 85 W 9 15 29.98 1015 10 16 0.00 0.00
9:53 am 09:53 Cloudy 30 -1.1 26 -3.3 85 85 W 10 17 29.99 1016 10 16 0.00 0.00
10:21 am 10:21 Cloudy 30 -1.1 26 -3.3 85 85 W 9 15 30.02 1016 10 16 0.00 0.00
10:33 am 10:33 Cloudy 31 -0.6 26 -3.3 82 82 W 12 19 30.03 1017 10 16 0.00 0.00
10:53 am 10:53 Cloudy 31 -0.6 26 -3.3 82 82 W 12 19 30.01 1016 10 16 0.00 0.00
11:53 am 11:53 Cloudy 31 -0.6 26 -3.3 82 82 W 12 19 30.01 1016 10 16 0.00 0.00
12:53 pm 12:53 Cloudy 32 0 26 -3.3 79 79 W 13 20 30.01 1016 10 16 0.00 0.00
1:53 pm 13:53 Cloudy 32 0 25 -3.9 75 75 W 14 22 30.01 1016 10 16 0.00 0.00
6:53 pm 18:53 Cloudy 32 0 23 -5 69 69 W 13 20 30.12 1020 10 16 0.00 0.00
7:24 pm 19:24 Cloudy 32 0 23 -5 69 69 WNW 10 17 30.15 1021 10 16 0.00 0.00
7:53 pm 19:53 Cloudy 32 0 23 -5 69 69 WNW 12 19 30.15 1021 10 16 0.00 0.00
9:53 pm 21:53 undefined 31 -0.6 23 -5 72 72 WNW 10 17 30.18 1022 10 16 0.00 0.00
10:53 pm 22:53 Cloudy 31 -0.6 22 -5.6 69 69 WNW 9 15 30.19 1022 10 16 0.00 0.00
11:53 pm 23:53 Cloudy 31 -0.6 23 -5 72 72 W 8 13 30.20 1023 10 16 0.00 0.00

Powered by AerisWeather